TimeEST,TemperatureF,Dew PointF,Humidity,Sea Level PressureIn,VisibilityMPH,Wind Direction,Wind SpeedMPH,Gust SpeedMPH,PrecipitationIn,Events,Conditions,WindDirDegrees,DateUTC
12:15 AM,30.2,30.2,100,30.04,1.8,NE,5.8,-,N/A,,Overcast,50,2013-02-24 05:15:00
12:35 AM,30.2,30.2,100,30.03,3.0,NE,8.1,-,N/A,,Overcast,50,2013-02-24 05:35:00
12:55 AM,30.2,30.2,100,30.02,3.0,ENE,9.2,-,N/A,,Overcast,70,2013-02-24 05:55:00
1:15 AM,30.2,30.2,100,30.01,5.0,ENE,10.4,-,N/A,,Overcast,60,2013-02-24 06:15:00
1:35 AM,32.0,30.2,93,30.01,10.0,ENE,9.2,-,N/A,,Overcast,70,2013-02-24 06:35:00
1:55 AM,32.0,30.2,93,30.00,10.0,ENE,9.2,-,N/A,,Overcast,60,2013-02-24 06:55:00
2:15 AM,32.0,30.2,93,30.00,10.0,ENE,8.1,-,N/A,,Overcast,60,2013-02-24 07:15:00
2:35 AM,32.0,30.2,93,29.98,7.0,NE,10.4,-,N/A,,Overcast,50,2013-02-24 07:35:00
2:55 AM,32.0,30.2,93,29.96,10.0,ENE,10.4,-,N/A,,Overcast,60,2013-02-24 07:55:00
3:15 AM,32.0,30.2,93,29.96,3.0,NE,13.8,-,N/A,,Overcast,50,2013-02-24 08:15:00
3:35 AM,32.0,30.2,93,29.95,3.0,ENE,10.4,-,N/A,,Overcast,60,2013-02-24 08:35:00
3:55 AM,30.2,30.2,100,29.95,3.0,NE,10.4,-,N/A,,Overcast,50,2013-02-24 08:55:00
4:15 AM,30.2,30.2,100,29.94,5.0,NE,11.5,-,N/A,,Overcast,50,2013-02-24 09:15:00
4:35 AM,30.2,30.2,100,29.93,5.0,NE,10.4,-,N/A,,Overcast,40,2013-02-24 09:35:00
4:55 AM,30.2,30.2,100,29.92,4.0,NE,10.4,-,N/A,,Overcast,50,2013-02-24 09:55:00
5:15 AM,32.0,30.2,93,29.91,8.0,NE,9.2,-,N/A,,Overcast,50,2013-02-24 10:15:00
5:35 AM,32.0,30.2,93,29.90,3.0,NE,9.2,-,N/A,,Overcast,40,2013-02-24 10:35:00
5:55 AM,30.2,30.2,100,29.91,3.0,NNE,9.2,-,N/A,,Overcast,30,2013-02-24 10:55:00
6:15 AM,30.2,30.2,100,29.90,3.0,NE,8.1,-,N/A,,Overcast,40,2013-02-24 11:15:00
6:35 AM,30.2,30.2,100,29.91,1.8,NNE,6.9,-,N/A,,Overcast,20,2013-02-24 11:35:00
6:55 AM,30.2,30.2,100,29.90,1.0,NNE,8.1,-,N/A,,Overcast,30,2013-02-24 11:55:00
7:15 AM,30.2,30.2,100,29.90,0.8,NNE,10.4,-,N/A,,Overcast,30,2013-02-24 12:15:00
7:35 AM,30.2,30.2,100,29.89,1.0,NNE,10.4,-,N/A,,Overcast,30,2013-02-24 12:35:00
7:55 AM,30.2,30.2,100,29.89,0.8,NNE,11.5,16.1,N/A,,Overcast,30,2013-02-24 12:55:00
8:15 AM,30.2,30.2,100,29.88,1.0,NNE,10.4,-,N/A,,Overcast,30,2013-02-24 13:15:00
8:36 AM,30.2,28.4,93,29.88,1.5,NNE,9.2,-,N/A,,Overcast,30,2013-02-24 13:36:00
8:55 AM,30.2,28.4,93,29.87,1.2,NNE,9.2,17.3,N/A,,Overcast,30,2013-02-24 13:55:00
9:15 AM,32.0,30.2,93,29.86,1.0,NE,11.5,-,N/A,,Overcast,40,2013-02-24 14:15:00
9:35 AM,30.2,30.2,100,29.86,1.0,NNE,11.5,-,N/A,,Overcast,30,2013-02-24 14:35:00
9:55 AM,30.2,30.2,100,29.86,1.0,NNE,12.7,-,N/A,,Overcast,30,2013-02-24 14:55:00
10:15 AM,30.2,30.2,100,29.85,1.0,NNE,12.7,17.3,N/A,,Overcast,30,2013-02-24 15:15:00
10:35 AM,30.2,30.2,100,29.84,0.5,NNE,11.5,18.4,N/A,,Overcast,30,2013-02-24 15:35:00
10:55 AM,30.2,30.2,100,29.83,0.5,NNE,12.7,18.4,N/A,,Overcast,30,2013-02-24 15:55:00
11:15 AM,30.2,30.2,100,29.82,0.5,NNE,12.7,17.3,N/A,,Overcast,30,2013-02-24 16:15:00
11:35 AM,30.2,30.2,100,29.82,1.0,NNE,12.7,18.4,N/A,,Overcast,30,2013-02-24 16:35:00
11:55 AM,30.2,30.2,100,29.81,1.2,NNE,15.0,19.6,N/A,,Overcast,30,2013-02-24 16:55:00
12:15 PM,30.2,30.2,100,29.80,1.0,NNE,12.7,19.6,N/A,,Overcast,30,2013-02-24 17:15:00
12:35 PM,30.2,30.2,100,29.79,0.8,NNE,16.1,23.0,N/A,,Overcast,30,2013-02-24 17:35:00
12:55 PM,30.2,28.4,93,29.78,0.8,NE,13.8,25.3,N/A,,Overcast,40,2013-02-24 17:55:00
1:15 PM,30.2,30.2,100,29.78,0.8,NNE,17.3,23.0,N/A,,Overcast,30,2013-02-24 18:15:00
1:35 PM,30.2,28.4,93,29.77,1.0,NNE,16.1,24.2,N/A,,Overcast,30,2013-02-24 18:35:00
1:55 PM,30.2,28.4,93,29.77,0.8,NE,17.3,23.0,N/A,,Overcast,40,2013-02-24 18:55:00
2:15 PM,30.2,28.4,93,29.77,0.5,NNE,13.8,19.6,N/A,,Overcast,20,2013-02-24 19:15:00
2:35 PM,30.2,28.4,93,29.77,0.5,NNE,13.8,21.9,N/A,,Overcast,30,2013-02-24 19:35:00
2:55 PM,30.2,28.4,93,29.77,0.5,NNE,16.1,23.0,N/A,,Overcast,30,2013-02-24 19:55:00
3:15 PM,30.2,28.4,93,29.77,0.5,NNE,13.8,20.7,N/A,,Overcast,20,2013-02-24 20:15:00
3:35 PM,30.2,28.4,93,29.78,0.5,NNE,10.4,21.9,N/A,,Overcast,30,2013-02-24 20:35:00
3:55 PM,30.2,28.4,93,29.78,0.5,NNE,16.1,26.5,N/A,,Overcast,30,2013-02-24 20:55:00
4:15 PM,30.2,28.4,93,29.78,0.8,NNE,12.7,20.7,N/A,,Overcast,30,2013-02-24 21:15:00
4:35 PM,30.2,28.4,93,29.78,0.8,NNE,11.5,18.4,N/A,,Overcast,30,2013-02-24 21:35:00
4:55 PM,30.2,28.4,93,29.77,1.0,NE,12.7,18.4,N/A,,Overcast,40,2013-02-24 21:55:00
5:15 PM,30.2,28.4,93,29.78,1.0,NNE,12.7,19.6,N/A,,Overcast,30,2013-02-24 22:15:00
5:35 PM,30.2,28.4,93,29.78,1.5,NE,15.0,21.9,N/A,,Overcast,40,2013-02-24 22:35:00
5:55 PM,30.2,28.4,93,29.78,2.0,NE,15.0,21.9,N/A,,Overcast,40,2013-02-24 22:55:00
6:15 PM,28.4,28.4,100,29.79,1.5,NNE,12.7,21.9,N/A,,Overcast,20,2013-02-24 23:15:00
6:35 PM,28.4,26.6,93,29.80,2.5,NE,11.5,-,N/A,,Overcast,40,2013-02-24 23:35:00
6:55 PM,28.4,26.6,93,29.80,5.0,NNE,9.2,16.1,N/A,,Overcast,30,2013-02-24 23:55:00
7:15 PM,28.4,26.6,93,29.80,10.0,NNE,10.4,-,N/A,,Mostly Cloudy,30,2013-02-25 00:15:00
7:35 PM,30.2,28.4,93,29.81,10.0,North,8.1,16.1,N/A,,Mostly Cloudy,10,2013-02-25 00:35:00
7:55 PM,30.2,26.6,86,29.81,10.0,North,6.9,-,N/A,,Mostly Cloudy,360,2013-02-25 00:55:00
8:15 PM,30.2,26.6,86,29.82,10.0,North,4.6,-,N/A,,Overcast,360,2013-02-25 01:15:00
8:35 PM,30.2,24.8,80,29.82,10.0,NNW,4.6,-,N/A,,Overcast,330,2013-02-25 01:35:00
8:55 PM,30.2,26.6,86,29.83,10.0,Calm,Calm,-,N/A,,Overcast,0,2013-02-25 01:55:00
9:15 PM,30.2,26.6,86,29.83,10.0,NNW,5.8,-,N/A,,Overcast,330,2013-02-25 02:15:00
9:35 PM,30.2,26.6,86,29.83,10.0,NNW,6.9,-,N/A,,Overcast,340,2013-02-25 02:35:00
9:55 PM,30.2,24.8,80,29.84,10.0,NNW,8.1,-,N/A,,Overcast,340,2013-02-25 02:55:00
10:15 PM,28.4,24.8,86,29.85,10.0,NNW,5.8,-,N/A,,Overcast,340,2013-02-25 03:15:00
10:35 PM,28.4,24.8,86,29.85,10.0,North,5.8,-,N/A,,Partly Cloudy,360,2013-02-25 03:35:00
10:55 PM,28.4,23.0,80,29.85,10.0,North,5.8,-,N/A,,Clear,360,2013-02-25 03:55:00
11:15 PM,28.4,23.0,80,29.86,10.0,North,6.9,-,N/A,,Clear,360,2013-02-25 04:15:00
11:35 PM,28.4,23.0,80,29.86,10.0,NNW,4.6,-,N/A,,Clear,340,2013-02-25 04:35:00
11:55 PM,28.4,23.0,80,29.87,10.0,NNW,5.8,-,N/A,,Clear,340,2013-02-25 04:55:00